Weather History for KHNB - March, 2014

Change the Weather History Date:

Thursday, March 20, 2014

  Actual Average Record
Temperature  
Mean Temperature 32 °F -  
Max Temperature 39 °F 53 °F 82 °F (2012)
Min Temperature 26 °F 34 °F 23 °F (2013)
Degree Days  
Heating Degree Days 32    
Moisture  
Dew Point 26 °F    
Average Humidity 78    
Maximum Humidity 93    
Minimum Humidity 65    
Precipitation  
Precipitation 0.00 in - - ()
Sea Level Pressure  
Sea Level Pressure 30.15 in    
Wind  
Wind Speed 6 mph (West)    
Max Wind Speed 9 mph    
Max Gust Speed -    
Visibility 9 miles    
Events      
Averages and records for this station are not official NWS values.
T = Trace of Precipitation, MM = Missing Value Source: NWS Daily Summary

Daily Weather History Graph

Daily Weather History Graph

Search for Another Location

Airport or City:

Trip Planner

Search our weather history database for the weather conditions in past years. The results will help you decide how hot, cold, wet, or windy it might be!

Date:

Astronomy

Mar. 20, 2014 Rise Set
Actual Time 7:51 AM EDT 7:59 PM EDT
Civil Twilight 7:24 AM EDT 8:26 PM EDT
Nautical Twilight 6:54 AM EDT 8:56 PM EDT
Astronomical Twilight 6:22 AM EDT 9:28 PM EDT
Moon No Moon Rise 10:00 AM EDT (3/20)
Length of Visible Light 13h 01m
Length of Day
12h 08m
Waning Gibbous, 84% of the Moon is Illuminated
Mar 20
Waning Gibbous
Mar 23
Last Quarter
Mar 30
New
Apr 7
First Quarter
Apr 15
Full

Hourly Weather History & Observations

Time (EDT) Temp. Windchill Dew Point Humidity Pressure Visibility Wind Dir Wind Speed Gust Speed Precip Events Conditions
12:15 AM 39.2 °F 33.6 °F 28.4 °F 65% 30.14 in 10.0 mi NNW 8.1 mph - N/A   Clear
12:35 AM 37.4 °F 31.4 °F 26.6 °F 65% 30.14 in 10.0 mi NW 8.1 mph - N/A   Clear
12:55 AM 37.4 °F 32.1 °F 26.6 °F 65% 30.14 in 10.0 mi NW 6.9 mph - N/A   Clear
1:15 AM 35.6 °F 28.6 °F 26.6 °F 70% 30.14 in 10.0 mi NW 9.2 mph - N/A   Clear
1:35 AM 35.6 °F 29.2 °F 26.6 °F 70% 30.15 in 10.0 mi NW 8.1 mph - N/A   Clear
1:55 AM 33.8 °F 28.6 °F 26.6 °F 75% 30.14 in 10.0 mi NW 5.8 mph - N/A   Clear
2:15 AM 33.8 °F 29.6 °F 26.6 °F 75% 30.14 in 10.0 mi NW 4.6 mph - N/A   Clear
2:35 AM 33.8 °F 27.7 °F 26.6 °F 75% 30.14 in 10.0 mi WNW 6.9 mph - N/A   Clear
2:55 AM 32.0 °F 25.6 °F 24.8 °F 75% 30.14 in 10.0 mi West 6.9 mph - N/A   Clear
3:15 AM 32.0 °F 25.6 °F 24.8 °F 75% 30.14 in 10.0 mi West 6.9 mph - N/A   Clear
3:35 AM 30.2 °F 23.4 °F 24.8 °F 80% 30.14 in 10.0 mi West 6.9 mph - N/A   Clear
3:55 AM 30.2 °F 25.4 °F 24.8 °F 80% 30.13 in 10.0 mi West 4.6 mph - N/A   Clear
4:15 AM 32.0 °F 27.5 °F 24.8 °F 75% 30.13 in 10.0 mi WNW 4.6 mph - N/A   Clear
4:35 AM 30.2 °F 24.3 °F 24.8 °F 80% 30.13 in 10.0 mi West 5.8 mph - N/A   Clear
4:55 AM 30.2 °F 25.4 °F 24.8 °F 80% 30.13 in 10.0 mi West 4.6 mph - N/A   Clear
5:15 AM 30.2 °F - 24.8 °F 80% 30.13 in 10.0 mi Calm Calm - N/A   Clear
5:35 AM 30.2 °F 25.4 °F 24.8 °F 80% 30.14 in 10.0 mi West 4.6 mph - N/A   Clear
5:55 AM 30.2 °F 26.7 °F 24.8 °F 80% 30.14 in 10.0 mi WSW 3.5 mph - N/A   Clear
6:15 AM 30.2 °F 26.7 °F 24.8 °F 80% 30.15 in 10.0 mi WSW 3.5 mph - N/A   Clear
6:35 AM 30.2 °F - 24.8 °F 80% 30.16 in 10.0 mi Calm Calm - N/A   Clear
6:55 AM 28.4 °F - 24.8 °F 86% 30.16 in 9.0 mi Calm Calm - N/A   Clear
7:15 AM 28.4 °F - 24.8 °F 86% 30.16 in 7.0 mi Calm Calm - N/A   Clear
7:35 AM 28.4 °F 24.6 °F 24.8 °F 86% 30.16 in 6.0 mi SW 3.5 mph - N/A   Clear
7:55 AM 28.4 °F - 24.8 °F 86% 30.16 in 6.0 mi Calm Calm - N/A   Clear
8:15 AM 26.6 °F 21.2 °F 24.8 °F 93% 30.17 in 4.0 mi SSW 4.6 mph - N/A   Clear
8:35 AM 28.4 °F 24.6 °F 24.8 °F 86% 30.17 in 5.0 mi SSW 3.5 mph - N/A   Clear
8:55 AM 30.2 °F 25.4 °F 26.6 °F 86% 30.17 in 4.0 mi SSW 4.6 mph - N/A   Clear
9:15 AM 32.0 °F 27.5 °F 28.4 °F 87% 30.17 in 5.0 mi SSW 4.6 mph - N/A   Clear
9:35 AM 35.6 °F 31.7 °F 30.2 °F 81% 30.17 in 7.0 mi SW 4.6 mph - N/A   Clear
9:55 AM 37.4 °F 31.4 °F 30.2 °F 75% 30.18 in 9.0 mi SW 8.1 mph - N/A   Clear
10:15 AM 37.4 °F 30.8 °F 30.2 °F 75% 30.19 in 10.0 mi SW 9.2 mph - N/A   Clear